User: anonymous   Login
Location: Brno
(49.2000°N, 16.6330°E)
Time: 13:50:20
(UTC+02:00)
Language:

Vanguard 2 Rocket - Orbit

View from above orbital plane
View from above orbital plane
View from above satellite
View from above satellite

Ground track
Ground track

The orbit data is extracted from the following two-line orbital elements,

1 00012U 59001B   21213.84749292 -.00000081  00000-0 -41004-4 0  9996
2 00012  32.9016 354.9523 1665171  73.7186 303.9533 11.44384175326999
Epoch (UTC): 01 August 2021 20:20:23
Eccentricity: 0.1665171
inclination: 32.9016°
perigee height: 555 km
apogee height: 3325 km
right ascension of ascending node: 354.9523°
argument of perigee: 73.7186°
revolutions per day: 11.44384175
mean anomaly at epoch: 303.9533°
orbit number at epoch: 32699

The dashed part of the orbit path shows where the satellite is in the earth's shadow,  

DLR